Regional Weather Roundup
Issued by NWS

Home | Current Version | Previous Version | Text Only | Print | Product List | Glossary On
Versions: 1 2 3 4 5 6 7 8 9 10 11 12 13 14 15 16 17 18 19 20 21 22 23 24 25 26 27 28 29 30 31 32 33 34 35 36 37 38 39 40 41 42 43 44
000
ASUS43 KDMX 250307
RWRIA

WEATHER ROUNDUP FOR IOWA
NATIONAL WEATHER SERVICE DES MOINES IA
900 PM CST WED DEC 24 2014

NOTE: "FAIR" INDICATES FEW OR NO CLOUDS BELOW 12,000 FEET WITH NO
SIGNIFICANT WEATHER AND/OR OBSTRUCTIONS TO VISIBILITY.

* - THESE STATIONS ARE NOT NWS STATIONS...THUS NOT UNDER NWS
QUALITY CONTROL.  THEY ALSO DO NOT REPORT WEATHER SUCH
AS PRECIPITATION OR FOG.

IAZ001>003-012>014-020>022-031>034-043>046-250400-
   NORTHWEST IOWA

CITY           SKY/WX    TMP DP  RH WIND       PRES   REMARKS
CARROLL *      CLOUDY    28  27  93 SW15      29.71S WCI  17
CHEROKEE *     CLOUDY    27  27 100 SW10      29.67F WCI  17
DENISON *      CLOUDY    28  28 100 S8        29.68F WCI  20
LE MARS *      CLOUDY    28  27  93 S14       29.66F WCI  17
ORANGE CITY *  CLOUDY    27  25  93 S12       29.65S WCI  16
SHELDON *      CLOUDY    27  27 100 S13       29.64F WCI  16
SIOUX CITY     PTCLDY    28  25  88 SE8       29.67F WCI  20
SPENCER        CLOUDY    27  24  89 SW13      29.66S WCI  16
STORM LAKE *   CLOUDY    27  25  93 SW15G21   29.68S WCI  15
$$

IAZ055>058-069>071-079>083-090>094-250400-
   SOUTHWEST IOWA

CITY           SKY/WX    TMP DP  RH WIND       PRES   REMARKS
ATLANTIC *     CLOUDY    30  28  93 SW13      29.73S WCI  20
AUDUBON *      PTCLDY    28  25  86 SW8       29.72F WCI  20
CLARINDA *     CLOUDY    32  28  86 SW7G14    29.78F WCI  26
COUNCIL BLFS * MOCLDY    28  28 100 S8        29.71S WCI  20
CRESTON *      CLOUDY    30  30 100 SW10G17   29.74F WCI  21
HARLAN  *      CLOUDY    28  28 100 S10       29.75F WCI  19
LAMONI         CLOUDY    31  28  89 W14       29.77S WCI  21
RED OAK *      CLOUDY    32  28  86 S10       29.75F WCI  24
SHENANDOAH *   PTCLDY    30  30 100 S8        29.76F WCI  23
$$

IAZ047>049-059>061-072>074-084-250400-
   CENTRAL IOWA

CITY           SKY/WX    TMP DP  RH WIND       PRES   REMARKS
AMES           CLOUDY    31  27  85 W10       29.71F WCI  22
ANKENY *       MIX PCPN  32  30  93 W14       29.72F WCI  22
CHARITON *     CLOUDY    32  30  93 W13       29.75S WCI  22
DES MOINES     CLOUDY    32  28  85 W15       29.73F WCI  22
GRINNELL*      CLOUDY    32  30  93 W13       29.71S WCI  22
KNOXVILLE *    CLOUDY    32  28  86 W14       29.72F WCI  22
MARSHALLTOWN   CLOUDY    32  29  88 W14       29.69S WCI  22
PELLA *        CLOUDY    32  30  93 W13       29.74F WCI  22
PERRY *        CLOUDY    30  30 100 SW14      29.72S WCI  20
$$

IAZ004>006-015-016-023>025-035-036-250400-
   NORTH CENTRAL IOWA

CITY           SKY/WX    TMP DP  RH WIND       PRES   REMARKS
ALGONA *       CLOUDY    28  28 100 SW16      29.67R WCI  17
CLARION *      CLOUDY    28  28 100 W16       29.67F WCI  17
ESTHERVILLE    CLOUDY    26  25  96 SW14      29.65S WCI  14
FORT DODGE *   CLOUDY    28  25  86 W14       29.69S WCI  17
MASON CITY     CLOUDY    31  28  89 SW15      29.66S WCI  20
FOREST CITY *  CLOUDY    32  28  86 SW10      29.65S WCI  24
IOWA FALLS *   CLOUDY    30  28  93 W9G17     29.69S WCI  22
$$

IAZ007>011-017>019-026>030-037>042-050>054-066-250400-
   NORTHEAST IOWA

CITY           SKY/WX    TMP DP  RH WIND       PRES   REMARKS
CEDAR RAPIDS   CLOUDY    31  30  96 W9        29.68F WCI  23
CHARLES CITY * CLOUDY    32  30  93 W7G14     29.67R WCI  26
CLINTON *      CLOUDY    36  30  80 W15       29.68S WCI  26
DECORAH *      CLOUDY    34  30  86 VRB7      29.63R WCI  28
DUBUQUE        CLOUDY    33  31  92 W9        29.64R WCI  25
MONTICELLO *   CLOUDY    34  34 100 W13G18    29.66S WCI  25
OELWEIN *      CLOUDY    32  30  93 W13       29.66F WCI  22
WATERLOO       CLOUDY    32  28  85 W10       29.68S WCI  24
$$

IAZ064-065-067-068-078-250400-
   EAST CENTRAL IOWA

CITY           SKY/WX    TMP DP  RH WIND       PRES   REMARKS
DAVENPORT      CLOUDY    35  31  85 W15       29.68S WCI  25
IOWA CITY      CLOUDY    34  30  85 W8        29.72S WCI  27
MT. PLEASANT * CLOUDY    34  30  86 W14G20    29.74S WCI  24
MUSCATINE *    CLOUDY    36  30  80 W12       29.72S WCI  27
QUAD CITIES    CLOUDY    36  30  79 W14       29.68S WCI  27
$$

IAZ062-063-075>077-085>089-095>099-250400-
   SOUTHEAST IOWA

CITY           SKY/WX    TMP DP  RH WIND       PRES   REMARKS
BURLINGTON     CLOUDY    36  30  79 W8        29.73S WCI  30
FAIRFIELD *    CLOUDY    34  28  80 W12G17    29.73F WCI  25
FORT MADISON * CLOUDY    37  34  87 W9        29.75S WCI  31
KEOKUK *       CLOUDY    36  32  87 W13G20    29.75S WCI  27
OSKALOOSA *    CLOUDY    32  30  93 W15       29.74S WCI  22
CENTERVILLE *  CLOUDY    32  32 100 W13       29.78R WCI  22
OTTUMWA        CLOUDY    33  29  85 W9        29.74F WCI  25
WASHINGTON *   CLOUDY    36  32  87 W12G20    29.72S WCI  27
$$

ABBREVIATIONS USED IN REMARKS
   TC - TEMPERATURES IN CELSIUS
  WCI - WIND CHILL INDEX
   HX - HEAT INDEX
  VSB - VISIBILITY
$$




USA.gov is the U.S. government's official web portal to all federal, state and local government web resources and services.